Location: Bothwell
(42.3833°S, 147.0000°E)
Time: 00:52:34
(UTC+10:00)

NOAA 19 - Visible Passes

Search period start: 26 September 2022 00:00
Search period end: 06 October 2022 01:00
Orbit: 841 x 860 km, 99.1° (Epoch: 25 September)

Date Brightness Start Highest point End Pass type
(mag) Time Alt. Az. Time Alt. Az. Time Alt. Az.
26 Sep 5.8 19:54:43 10° SSE 19:59:19 35° E 19:59:19 35° E visible
26 Sep 6.7 21:35:27 10° S 21:40:21 33° WSW 21:41:20 31° W visible
27 Sep 6.1 19:43:04 10° SE 19:47:27 28° E 19:47:27 28° E visible
27 Sep 6.3 21:23:22 10° S 21:28:32 41° WSW 21:29:28 38° W visible
28 Sep 6.3 19:31:31 10° SE 19:35:35 22° E 19:35:35 22° E visible
28 Sep 5.9 21:11:19 10° S 21:16:41 52° WSW 21:17:35 47° WNW visible
29 Sep 6.6 19:20:08 10° SE 19:23:42 17° E 19:23:42 17° E visible
29 Sep 5.5 20:59:20 10° S 21:04:49 66° WSW 21:05:43 56° WNW visible
29 Sep 8.1 22:43:56 10° SW 22:44:24 10° SW 22:44:51 10° WSW visible
30 Sep 6.8 19:09:04 10° ESE 19:11:39 13° E 19:11:49 13° E visible
30 Sep 5.2 20:47:22 10° SSE 20:52:56 82° WSW 20:53:50 64° NNW visible
30 Sep 8.0 22:30:19 10° SSW 22:32:42 13° SW 22:35:05 10° W visible
01 Oct 5.0 20:35:27 10° SSE 20:41:02 79° ENE 20:41:57 62° N visible
01 Oct 7.7 22:17:42 10° SSW 22:20:59 16° WSW 22:23:58 11° W visible
02 Oct 5.1 21:23:35 10° SSE 21:29:06 63° ENE 21:30:04 54° NNE visible
02 Oct 7.5 23:05:19 10° SSW 23:09:14 20° WSW 23:12:04 14° W visible
03 Oct 5.4 21:11:46 10° SSE 21:17:09 49° E 21:18:11 44° NE visible
03 Oct 7.2 22:53:03 10° S 22:57:28 25° WSW 23:00:11 17° WNW visible
04 Oct 5.6 21:00:01 10° SSE 21:05:11 39° E 21:06:17 35° NE visible
04 Oct 6.8 22:40:53 10° S 22:45:40 31° WSW 22:48:17 21° WNW visible
05 Oct 5.9 20:48:19 10° SE 20:53:11 30° E 20:54:24 28° ENE visible
05 Oct 6.5 22:28:46 10° S 22:33:51 38° WSW 22:36:24 25° WNW visible
